CDT,Max TemperatureF,Mean TemperatureF,Min TemperatureF,Max Dew PointF,MeanDew PointF,Min DewpointF,Max Humidity, Mean Humidity, Min Humidity, Max Sea Level PressureIn, Mean Sea Level PressureIn, Min Sea Level PressureIn, Max VisibilityMiles, Mean VisibilityMiles, Min VisibilityMiles, Max Wind SpeedMPH, Mean Wind SpeedMPH, Max Gust SpeedMPH,PrecipitationIn, CloudCover, Events, WindDirDegrees
2013-10-1,62,54,44,48,42,36,72,68,59,29.97,29.79,29.58,10,10,10,17,11,23,0.00,0,,296
2013-10-2,50,46,42,45,40,36,87,78,71,29.98,29.97,29.96,10,10,10,8,5,,0.00,0,,90
2013-10-3,51,45,44,46,44,43,93,89,82,29.98,29.94,29.93,10,10,10,17,7,22,0.00,1,,14
2013-10-4,53,50,48,48,46,45,88,82,77,30.08,29.97,29.87,10,9,4,15,13,24,0.19,8,,36
2013-10-5,50,48,46,46,45,43,93,87,82,29.82,29.78,29.74,10,7,2,22,14,30,0.10,8,,39
2013-10-6,51,46,42,45,41,39,93,87,67,29.89,29.83,29.80,10,8,3,21,13,30,0.00,5,,324
2013-10-7,62,48,35,41,37,34,93,80,37,29.97,29.88,29.83,10,10,10,10,6,,0.00,0,,285
2013-10-8,69,58,48,46,43,39,82,72,43,29.82,29.73,29.65,10,10,10,15,10,20,0.00,0,,150
2013-10-9,66,54,42,50,46,41,93,78,52,29.97,29.89,29.78,10,10,7,9,4,,0.00,0,,33
2013-10-10,73,62,51,52,48,46,82,65,46,29.92,29.82,29.71,10,10,10,15,8,21,0.00,3,,140
2013-10-11,64,57,50,48,46,43,76,62,52,29.74,29.61,29.40,10,10,10,24,16,32,0.00,2,,163
2013-10-12,50,42,35,43,38,32,93,78,62,30.20,29.83,29.54,10,10,3,24,17,32,0.00,5,,259
2013-10-13,51,42,32,37,34,30,100,81,54,30.36,30.31,30.21,10,10,10,8,4,,0.00,2,,240
2013-10-14,48,45,42,41,37,36,93,71,62,30.35,30.24,29.93,10,10,5,17,9,29,0.30,8,,103
2013-10-15,44,42,39,41,39,34,93,85,76,30.03,29.91,29.82,10,9,4,24,17,32,0.61,8,,23
2013-10-16,48,39,30,37,33,28,93,86,66,30.03,29.94,29.83,10,10,10,10,6,,0.00,1,,244
2013-10-17,44,38,32,41,35,30,93,83,66,29.97,29.88,29.80,10,10,7,17,5,23,0.01,6,,320
2013-10-18,42,36,30,34,31,28,93,86,66,29.99,29.92,29.80,10,10,7,16,6,20,0.03,4,,269
2013-10-19,37,35,33,36,33,30,93,90,81,29.79,29.75,29.70,10,10,4,14,3,18,0.13,6,,111
2013-10-20,35,34,32,34,30,23,93,84,69,29.98,29.73,29.60,10,10,10,14,9,18,0.12,8,,140
2013-10-21,37,34,30,27,24,21,86,73,56,29.99,29.98,29.96,10,10,10,15,9,20,0.00,6,,318
2013-10-22,37,34,30,30,28,27,93,85,70,30.08,30.03,29.98,10,10,10,10,4,,0.00,6,,326
2013-10-23,35,34,32,30,28,23,93,83,69,30.17,30.08,30.04,10,10,10,14,6,17,0.00,8,,324
2013-10-24,37,34,30,32,30,27,93,88,75,30.31,30.25,30.18,10,10,10,12,6,,0.00,6,,284
2013-10-25,51,38,26,37,29,23,93,78,54,30.30,30.08,29.81,10,10,10,23,7,31,0.00,0,,248
2013-10-26,37,32,28,30,27,25,87,79,70,30.12,30.04,29.96,10,10,10,15,10,,0.00,2,,293
2013-10-27,41,36,30,28,27,27,87,79,57,30.24,29.97,29.78,10,10,10,16,9,22,0.00,0,,117
2013-10-28,35,29,26,28,24,21,87,80,56,30.46,30.36,30.25,10,10,10,15,11,20,0.00,0,,23
2013-10-29,33,32,32,32,32,30,100,97,93,30.19,30.14,30.11,10,4,2,7,5,,0.09,8,,76
2013-10-30,37,35,33,36,33,32,100,93,87,30.10,29.91,29.71,5,2,1,7,2,,0.03,8,,348
2013-10-31,41,37,33,36,34,32,93,89,81,29.70,29.53,29.44,10,8,4,12,7,,0.01,8,,282